GEFSCGP_prec_meanprecacc_348.txt.gz
Total_Precipitation_Accumulation
0.09 0.11 0.14 0.13 0.17 0.22 0.27 0.34 0.45 0.46 0.32 0.38 0.56 0.77 0.97 1.12 1.27 1.32 1.44 1.42 1.61 1.90 2.08 2.47 2.87 3.34 3.81 4.32 5.10 5.81 6.41 6.52 6.41 6.09 5.77 5.54 5.09 4.78 4.47 4.21 4.03 3.76 3.48 3.38
0.11 0.13 0.10 0.10 0.12 0.15 0.24 0.34 0.48 0.46 0.34 0.40 0.59 0.85 1.12 1.16 1.11 1.12 1.32 1.40 1.48 1.69 2.01 2.40 2.96 3.28 3.62 4.18 4.79 5.18 5.28 5.09 5.03 5.13 5.07 4.81 4.81 4.64 4.58 4.43 4.26 3.71 3.51 3.44
0.10 0.10 0.07 0.08 0.12 0.14 0.19 0.29 0.38 0.41 0.42 0.50 0.72 1.14 1.39 1.36 1.11 1.02 1.04 1.16 1.30 1.43 1.66 2.03 2.60 2.94 3.13 3.66 4.02 4.02 4.01 3.98 4.11 4.23 4.20 4.25 4.51 4.60 4.70 4.67 4.42 3.96 3.75 3.61
0.05 0.06 0.07 0.08 0.12 0.13 0.19 0.19 0.24 0.30 0.45 0.77 0.87 1.46 1.74 1.78 1.53 1.19 1.07 1.22 1.29 1.35 1.39 1.72 2.07 2.32 2.61 2.91 3.07 3.06 3.18 3.32 3.41 3.53 3.59 3.49 3.53 3.82 4.12 4.38 4.49 4.37 4.09 3.82
0.06 0.06 0.07 0.08 0.10 0.12 0.14 0.14 0.20 0.31 0.43 0.66 0.76 1.12 1.68 1.97 1.94 1.52 1.23 1.17 1.11 1.24 1.44 1.63 1.76 1.97 2.08 2.17 2.32 2.39 2.64 3.10 3.32 3.43 3.58 3.53 3.28 3.29 3.39 3.55 3.77 3.78 3.77 3.58
0.06 0.07 0.07 0.07 0.08 0.11 0.13 0.19 0.31 0.46 0.68 1.03 0.88 1.00 1.57 1.79 1.81 1.42 1.21 1.12 1.03 1.03 1.16 1.38 1.66 1.77 1.77 1.79 1.92 2.12 2.44 3.02 3.35 3.45 3.36 3.38 3.42 3.49 3.40 3.35 3.46 3.37 3.34 3.24
0.17 0.15 0.11 0.08 0.10 0.12 0.16 0.32 0.78 1.25 1.57 1.61 0.97 0.94 1.23 1.30 1.18 1.15 1.01 0.99 1.08 1.02 0.96 0.97 1.15 1.40 1.43 1.42 1.56 1.80 2.07 2.55 2.90 3.07 2.93 2.89 3.10 3.32 3.22 3.04 2.98 2.97 2.83 2.76
0.20 0.24 0.16 0.11 0.11 0.12 0.15 0.27 0.64 1.00 1.15 1.27 1.11 1.44 1.53 1.14 0.95 0.86 0.76 0.81 0.91 0.82 0.74 0.70 0.76 0.95 1.21 1.25 1.34 1.47 1.73 2.01 2.34 2.55 2.61 2.69 2.89 3.03 2.99 3.20 2.94 2.79 2.45 2.34
0.09 0.13 0.12 0.11 0.11 0.14 0.17 0.19 0.29 0.45 0.65 0.99 1.28 1.46 1.42 1.16 1.07 0.89 0.73 0.70 0.69 0.64 0.65 0.69 0.74 0.95 1.04 1.04 1.14 1.30 1.49 1.69 1.93 2.18 2.41 2.49 2.48 2.50 2.65 2.83 2.77 2.62 2.53 2.27
0.06 0.07 0.09 0.11 0.12 0.14 0.15 0.17 0.23 0.34 0.60 0.86 1.18 1.62 1.70 1.46 1.22 1.03 0.96 0.79 0.68 0.68 0.69 0.70 0.70 0.76 0.82 0.89 1.05 1.26 1.44 1.45 1.69 2.09 2.37 2.33 2.40 2.33 2.48 2.47 2.45 2.48 2.40 2.34
0.05 0.06 0.09 0.12 0.15 0.18 0.19 0.18 0.19 0.26 0.32 0.54 1.08 1.34 1.21 1.20 1.12 1.05 0.95 0.88 0.83 0.78 0.74 0.71 0.72 0.72 0.84 0.81 0.92 1.12 1.24 1.35 1.66 2.04 2.38 2.46 2.40 2.38 2.45 2.28 2.22 2.33 2.35 2.32
0.06 0.06 0.09 0.15 0.21 0.20 0.20 0.19 0.20 0.29 0.29 0.35 0.58 0.92 0.72 0.81 0.93 0.97 0.84 0.78 0.73 0.62 0.58 0.55 0.55 0.63 0.65 0.68 0.81 1.16 1.44 1.78 1.99 2.33 2.71 2.80 2.61 2.40 2.24 2.03 2.01 2.17 2.33 2.36
0.05 0.07 0.16 0.35 0.37 0.27 0.20 0.17 0.19 0.21 0.22 0.30 0.59 0.85 0.66 0.72 0.86 0.88 0.87 0.76 0.72 0.71 0.59 0.57 0.55 0.66 0.68 0.66 0.68 0.81 1.01 1.44 1.84 2.24 2.62 2.57 2.32 2.11 2.05 2.02 2.05 2.18 2.37 2.38
0.07 0.06 0.12 0.30 0.36 0.35 0.29 0.22 0.20 0.18 0.21 0.29 0.41 0.71 0.68 0.72 0.71 0.80 0.77 0.71 0.78 0.85 0.72 0.66 0.64 0.64 0.64 0.66 0.65 0.75 0.86 0.95 1.24 1.79 2.20 2.14 1.94 1.87 1.89 1.93 1.98 2.02 2.14 2.19
0.07 0.07 0.07 0.09 0.18 0.25 0.27 0.24 0.21 0.17 0.17 0.30 0.36 0.50 0.57 0.73 0.73 0.76 0.74 0.68 0.66 0.75 0.71 0.66 0.67 0.76 0.78 0.84 0.86 0.86 0.88 0.90 1.12 1.68 2.01 1.99 1.86 1.85 1.81 1.80 1.93 2.02 2.09 2.09
0.10 0.11 0.11 0.12 0.15 0.18 0.19 0.22 0.20 0.15 0.14 0.14 0.21 0.40 0.45 0.72 0.86 0.84 0.84 0.81 0.76 0.75 0.70 0.68 0.61 0.72 0.84 0.92 0.95 0.96 1.02 1.07 1.21 1.60 1.93 1.94 1.82 1.76 1.68 1.75 1.90 2.03 2.12 2.29
0.16 0.15 0.16 0.18 0.20 0.20 0.27 0.23 0.20 0.18 0.19 0.21 0.30 0.44 0.46 0.55 0.72 0.82 0.84 0.81 0.74 0.76 0.70 0.70 0.74 0.84 1.04 0.98 1.02 1.10 1.03 1.09 1.29 1.67 1.95 2.03 1.94 1.87 1.83 1.75 1.92 2.11 2.33 2.51
0.29 0.27 0.26 0.23 0.28 0.40 0.32 0.24 0.24 0.28 0.32 0.34 0.36 0.40 0.45 0.59 0.67 0.82 0.98 0.84 0.71 0.74 0.77 0.87 0.86 0.94 1.03 1.02 1.07 1.14 1.16 1.22 1.40 1.71 1.98 2.12 2.07 2.04 2.11 2.11 2.17 2.36 2.59 2.76
0.35 0.40 0.36 0.32 0.38 0.47 0.42 0.33 0.37 0.41 0.48 0.51 0.52 0.46 0.53 0.62 0.74 0.91 0.85 0.82 0.88 0.90 0.91 0.98 1.08 1.13 1.21 1.21 1.17 1.24 1.40 1.47 1.54 1.65 1.94 2.15 2.22 2.26 2.22 2.25 2.52 2.73 2.88 2.91
0.37 0.46 0.50 0.46 0.56 0.66 0.64 0.47 0.40 0.48 0.83 0.66 0.67 0.66 0.60 0.65 0.95 1.11 0.91 0.82 0.83 0.96 1.07 1.08 1.15 1.23 1.27 1.31 1.38 1.46 1.60 1.76 1.90 1.99 2.14 2.42 2.62 2.75 2.76 2.83 2.91 2.98 3.08 3.03
0.67 0.63 0.62 0.68 0.82 0.77 0.61 0.52 0.47 0.91 1.26 0.92 0.88 0.86 0.76 0.89 1.02 1.04 0.93 0.89 0.86 0.88 1.01 1.10 1.15 1.27 1.37 1.40 1.55 1.84 2.01 2.10 2.26 2.40 2.46 2.73 3.07 3.25 3.21 3.24 3.13 3.06 3.04 3.05
0.90 0.86 0.87 0.92 1.18 1.27 0.71 0.64 1.00 1.26 1.06 1.09 1.10 1.06 1.00 0.99 1.05 1.06 1.05 0.94 0.91 0.90 0.96 1.08 1.17 1.28 1.49 1.77 1.97 2.25 2.43 2.47 2.53 2.68 2.98 3.23 3.40 3.22 3.12 3.32 3.22 3.23 3.28 3.24
0.99 1.04 1.12 1.21 1.44 1.22 0.87 0.99 1.17 1.14 1.12 1.17 1.14 1.09 0.99 0.96 1.12 1.07 1.02 1.03 0.95 0.93 0.97 1.06 1.17 1.38 1.61 1.93 2.32 2.54 2.61 2.80 2.80 2.86 3.09 3.17 3.22 3.33 3.47 3.54 3.43 3.37 3.36 3.28
1.23 1.11 1.29 1.51 1.57 1.32 1.16 1.15 1.11 1.13 1.16 1.13 1.06 1.05 1.04 1.00 1.02 1.04 1.01 1.03 1.00 0.99 1.07 1.12 1.25 1.48 1.79 2.10 2.43 2.60 2.64 2.67 2.70 2.74 2.78 2.91 3.08 3.20 3.32 3.56 3.56 3.43 3.25 3.15
1.47 1.38 1.64 2.04 2.11 1.95 1.77 1.51 1.33 1.28 1.22 1.26 1.24 1.17 1.13 1.08 1.04 1.02 1.06 1.06 1.06 1.06 1.16 1.27 1.39 1.51 1.68 1.96 2.25 2.40 2.54 2.63 2.80 2.84 2.76 2.68 2.71 2.83 2.98 3.11 3.20 3.13 3.11 3.00
1.65 1.71 2.00 2.39 2.12 2.08 2.19 1.90 1.64 1.58 1.57 1.57 1.54 1.49 1.38 1.29 1.23 1.16 1.13 1.07 1.05 1.04 1.13 1.26 1.40 1.57 1.76 1.95 2.16 2.28 2.47 2.62 2.78 2.78 2.67 2.61 2.56 2.62 2.67 2.69 2.66 2.54 2.44 2.32

GEFSCGP_prec_meanprecacc_354.txt.gz
Total_Precipitation_Accumulation
0.10 0.13 0.16 0.14 0.18 0.23 0.29 0.35 0.47 0.48 0.33 0.39 0.61 0.81 1.00 1.19 1.33 1.35 1.46 1.44 1.63 1.91 2.09 2.47 2.88 3.36 3.89 4.44 5.16 5.84 6.43 6.54 6.43 6.11 5.81 5.59 5.14 4.83 4.51 4.26 4.10 3.85 3.55 3.43
0.11 0.15 0.11 0.11 0.13 0.16 0.25 0.35 0.49 0.47 0.35 0.41 0.65 0.90 1.16 1.24 1.17 1.14 1.33 1.42 1.49 1.70 2.02 2.41 2.99 3.28 3.63 4.19 4.79 5.19 5.29 5.10 5.04 5.14 5.11 4.85 4.85 4.69 4.63 4.48 4.34 3.86 3.63 3.51
0.11 0.11 0.08 0.08 0.13 0.15 0.19 0.30 0.39 0.43 0.44 0.53 0.76 1.18 1.43 1.42 1.14 1.03 1.06 1.19 1.32 1.45 1.67 2.04 2.61 2.95 3.13 3.66 4.02 4.03 4.03 4.02 4.15 4.25 4.22 4.27 4.54 4.63 4.74 4.71 4.50 4.15 3.90 3.66
0.06 0.07 0.08 0.09 0.13 0.14 0.21 0.20 0.26 0.32 0.48 0.83 0.94 1.51 1.76 1.84 1.56 1.21 1.09 1.25 1.32 1.38 1.40 1.73 2.09 2.33 2.62 2.91 3.08 3.08 3.21 3.39 3.50 3.57 3.60 3.51 3.54 3.83 4.14 4.41 4.55 4.50 4.21 3.88
0.07 0.07 0.08 0.09 0.10 0.12 0.14 0.14 0.21 0.33 0.47 0.69 0.82 1.17 1.72 2.01 1.97 1.55 1.26 1.20 1.16 1.29 1.46 1.64 1.77 1.98 2.09 2.19 2.34 2.42 2.69 3.18 3.41 3.47 3.60 3.55 3.30 3.32 3.43 3.58 3.81 3.82 3.84 3.64
0.07 0.08 0.08 0.07 0.08 0.11 0.13 0.20 0.32 0.48 0.71 1.09 0.93 1.05 1.62 1.83 1.84 1.46 1.24 1.16 1.06 1.06 1.18 1.39 1.67 1.78 1.78 1.81 1.96 2.17 2.50 3.08 3.41 3.50 3.39 3.42 3.46 3.53 3.43 3.38 3.49 3.40 3.37 3.28
0.18 0.16 0.12 0.08 0.10 0.13 0.16 0.33 0.79 1.28 1.60 1.65 1.00 0.97 1.26 1.34 1.21 1.18 1.06 1.09 1.14 1.04 0.97 0.98 1.16 1.41 1.44 1.43 1.59 1.85 2.13 2.61 2.95 3.11 2.97 2.93 3.15 3.35 3.25 3.06 3.00 2.98 2.84 2.77
0.21 0.25 0.16 0.11 0.11 0.12 0.16 0.27 0.66 1.03 1.18 1.30 1.16 1.50 1.57 1.17 0.98 0.89 0.79 0.85 0.94 0.84 0.75 0.71 0.77 0.96 1.22 1.25 1.36 1.52 1.80 2.07 2.39 2.61 2.67 2.73 2.93 3.06 3.01 3.21 2.95 2.80 2.46 2.34
0.11 0.13 0.12 0.11 0.11 0.14 0.17 0.19 0.31 0.48 0.69 1.04 1.34 1.57 1.48 1.21 1.10 0.92 0.76 0.73 0.72 0.66 0.66 0.70 0.75 0.96 1.05 1.05 1.16 1.33 1.55 1.76 2.03 2.28 2.46 2.53 2.51 2.53 2.68 2.85 2.79 2.63 2.54 2.28
0.08 0.08 0.10 0.11 0.12 0.14 0.16 0.18 0.25 0.38 0.65 0.93 1.25 1.70 1.75 1.50 1.26 1.07 1.00 0.82 0.71 0.71 0.71 0.71 0.71 0.77 0.83 0.90 1.06 1.29 1.50 1.54 1.78 2.15 2.41 2.35 2.44 2.36 2.51 2.49 2.47 2.49 2.41 2.35
0.06 0.07 0.09 0.13 0.15 0.18 0.20 0.19 0.21 0.29 0.36 0.59 1.15 1.39 1.23 1.22 1.15 1.09 0.99 0.93 0.86 0.81 0.76 0.72 0.73 0.74 0.85 0.82 0.93 1.13 1.30 1.44 1.71 2.07 2.41 2.49 2.44 2.44 2.50 2.32 2.26 2.37 2.39 2.37
0.07 0.07 0.10 0.15 0.21 0.21 0.21 0.20 0.22 0.31 0.32 0.38 0.62 0.95 0.73 0.83 0.95 0.99 0.87 0.81 0.76 0.65 0.62 0.58 0.57 0.66 0.67 0.70 0.83 1.17 1.47 1.84 2.04 2.39 2.77 2.87 2.67 2.47 2.31 2.10 2.08 2.25 2.42 2.45
0.06 0.08 0.18 0.36 0.38 0.27 0.21 0.18 0.20 0.23 0.24 0.33 0.62 0.87 0.67 0.74 0.88 0.90 0.88 0.77 0.73 0.73 0.60 0.59 0.57 0.69 0.70 0.69 0.72 0.85 1.06 1.50 1.88 2.28 2.67 2.64 2.37 2.15 2.10 2.07 2.10 2.25 2.45 2.44
0.07 0.07 0.13 0.32 0.37 0.36 0.30 0.24 0.22 0.19 0.23 0.31 0.43 0.72 0.70 0.74 0.73 0.81 0.78 0.72 0.79 0.86 0.72 0.67 0.65 0.65 0.66 0.68 0.68 0.79 0.90 0.99 1.27 1.82 2.22 2.16 1.96 1.89 1.93 1.98 2.05 2.11 2.23 2.27
0.08 0.07 0.08 0.11 0.19 0.26 0.27 0.25 0.22 0.19 0.17 0.31 0.38 0.52 0.59 0.75 0.74 0.77 0.76 0.70 0.67 0.76 0.72 0.67 0.68 0.77 0.79 0.86 0.87 0.88 0.90 0.92 1.14 1.70 2.04 2.02 1.89 1.88 1.86 1.86 2.00 2.11 2.19 2.19
0.10 0.11 0.12 0.14 0.18 0.20 0.19 0.22 0.21 0.16 0.14 0.15 0.23 0.42 0.47 0.74 0.88 0.86 0.87 0.82 0.77 0.75 0.71 0.68 0.62 0.73 0.86 0.94 0.97 0.98 1.04 1.09 1.23 1.62 1.95 1.96 1.85 1.80 1.73 1.82 1.98 2.12 2.19 2.37
0.17 0.15 0.16 0.19 0.22 0.22 0.28 0.24 0.20 0.20 0.20 0.23 0.34 0.47 0.47 0.57 0.74 0.85 0.86 0.82 0.75 0.77 0.70 0.71 0.75 0.85 1.05 1.00 1.04 1.11 1.05 1.11 1.31 1.69 1.97 2.06 1.98 1.92 1.89 1.82 2.00 2.21 2.45 2.67
0.29 0.28 0.26 0.24 0.29 0.41 0.33 0.25 0.25 0.29 0.35 0.36 0.39 0.43 0.46 0.60 0.70 0.84 0.99 0.85 0.71 0.75 0.78 0.87 0.87 0.95 1.04 1.03 1.08 1.15 1.18 1.23 1.41 1.73 2.00 2.15 2.11 2.10 2.18 2.19 2.26 2.47 2.72 2.89
0.35 0.40 0.37 0.34 0.39 0.48 0.44 0.35 0.38 0.42 0.50 0.54 0.55 0.48 0.55 0.63 0.75 0.93 0.91 0.86 0.89 0.91 0.92 0.98 1.09 1.15 1.23 1.24 1.19 1.26 1.42 1.48 1.55 1.66 1.96 2.18 2.26 2.32 2.30 2.34 2.59 2.79 2.92 2.94
0.37 0.46 0.51 0.47 0.58 0.67 0.66 0.48 0.41 0.49 0.84 0.67 0.68 0.66 0.61 0.66 0.98 1.14 0.95 0.87 0.87 0.99 1.10 1.10 1.17 1.26 1.30 1.34 1.40 1.48 1.61 1.78 1.91 2.01 2.16 2.45 2.65 2.79 2.79 2.86 2.94 2.99 3.09 3.05
0.67 0.63 0.63 0.69 0.83 0.79 0.62 0.54 0.48 0.93 1.27 0.93 0.89 0.87 0.78 0.91 1.04 1.06 0.96 0.93 0.91 0.94 1.09 1.17 1.20 1.31 1.40 1.42 1.57 1.87 2.03 2.12 2.28 2.43 2.50 2.77 3.12 3.29 3.23 3.26 3.15 3.07 3.06 3.06
0.91 0.87 0.88 0.93 1.20 1.30 0.72 0.65 1.02 1.28 1.07 1.11 1.12 1.08 1.03 1.01 1.06 1.08 1.07 0.96 0.95 1.00 1.07 1.20 1.26 1.33 1.53 1.79 1.99 2.28 2.48 2.52 2.59 2.73 3.03 3.26 3.43 3.25 3.14 3.33 3.23 3.24 3.31 3.26
1.00 1.05 1.14 1.22 1.45 1.24 0.90 1.04 1.21 1.17 1.14 1.20 1.17 1.11 1.02 0.99 1.14 1.09 1.03 1.05 0.96 0.96 1.02 1.14 1.27 1.47 1.68 1.98 2.36 2.60 2.67 2.87 2.88 2.93 3.14 3.20 3.24 3.34 3.48 3.55 3.44 3.39 3.38 3.30
1.24 1.12 1.30 1.52 1.58 1.34 1.18 1.18 1.14 1.15 1.17 1.14 1.08 1.09 1.07 1.06 1.06 1.06 1.03 1.05 1.02 1.01 1.08 1.15 1.29 1.55 1.86 2.15 2.49 2.66 2.71 2.73 2.74 2.77 2.81 2.93 3.09 3.22 3.34 3.58 3.58 3.45 3.27 3.17
1.48 1.40 1.67 2.07 2.14 1.97 1.79 1.54 1.37 1.32 1.24 1.28 1.26 1.22 1.18 1.12 1.08 1.05 1.09 1.10 1.09 1.08 1.18 1.30 1.43 1.55 1.72 2.01 2.32 2.45 2.59 2.67 2.83 2.86 2.78 2.70 2.72 2.84 2.99 3.13 3.21 3.16 3.14 3.03
1.67 1.73 2.03 2.44 2.17 2.12 2.23 1.92 1.68 1.62 1.62 1.61 1.57 1.52 1.41 1.32 1.26 1.21 1.21 1.17 1.13 1.08 1.15 1.29 1.43 1.61 1.79 2.00 2.22 2.32 2.49 2.63 2.79 2.79 2.68 2.62 2.59 2.66 2.71 2.71 2.69 2.57 2.47 2.35

GEFSCGP_prec_meanprecacc_360.txt.gz
Total_Precipitation_Accumulation
0.11 0.14 0.17 0.15 0.19 0.24 0.29 0.35 0.47 0.49 0.34 0.40 0.62 0.82 1.01 1.20 1.35 1.39 1.50 1.46 1.64 1.93 2.10 2.48 2.89 3.37 3.90 4.46 5.17 5.86 6.47 6.61 6.48 6.17 5.87 5.63 5.17 4.86 4.55 4.31 4.16 3.93 3.63 3.50
0.13 0.16 0.12 0.12 0.14 0.17 0.25 0.35 0.49 0.48 0.36 0.42 0.67 0.91 1.17 1.25 1.18 1.17 1.34 1.43 1.51 1.72 2.03 2.42 2.99 3.29 3.64 4.19 4.80 5.20 5.34 5.20 5.11 5.21 5.18 4.91 4.89 4.73 4.67 4.52 4.40 3.93 3.70 3.58
0.12 0.11 0.09 0.09 0.13 0.16 0.20 0.30 0.39 0.44 0.44 0.54 0.78 1.20 1.44 1.43 1.16 1.05 1.07 1.20 1.34 1.47 1.68 2.05 2.62 2.96 3.14 3.67 4.04 4.05 4.07 4.09 4.24 4.34 4.31 4.36 4.59 4.67 4.78 4.77 4.56 4.20 3.96 3.73
0.07 0.08 0.08 0.10 0.14 0.14 0.21 0.20 0.26 0.33 0.49 0.85 0.97 1.53 1.78 1.86 1.57 1.23 1.10 1.26 1.34 1.40 1.42 1.74 2.10 2.34 2.63 2.94 3.11 3.12 3.26 3.44 3.57 3.66 3.66 3.58 3.63 3.90 4.19 4.47 4.62 4.57 4.28 3.96
0.07 0.08 0.08 0.10 0.11 0.13 0.15 0.15 0.22 0.34 0.48 0.70 0.84 1.20 1.74 2.03 1.99 1.57 1.27 1.21 1.17 1.30 1.47 1.65 1.78 1.99 2.11 2.21 2.38 2.45 2.73 3.22 3.45 3.52 3.64 3.59 3.34 3.36 3.48 3.64 3.86 3.87 3.90 3.71
0.08 0.09 0.08 0.08 0.08 0.12 0.14 0.20 0.33 0.49 0.73 1.09 0.93 1.06 1.64 1.84 1.86 1.47 1.25 1.17 1.08 1.08 1.19 1.40 1.67 1.79 1.80 1.83 1.98 2.19 2.52 3.11 3.44 3.52 3.42 3.44 3.47 3.55 3.45 3.42 3.53 3.45 3.42 3.32
0.19 0.16 0.13 0.08 0.10 0.13 0.17 0.34 0.80 1.29 1.62 1.65 1.01 0.97 1.27 1.35 1.22 1.18 1.06 1.10 1.16 1.06 0.99 0.99 1.17 1.42 1.46 1.45 1.61 1.87 2.15 2.63 2.97 3.13 2.98 2.95 3.16 3.38 3.28 3.09 3.03 3.02 2.87 2.79
0.22 0.26 0.16 0.12 0.11 0.12 0.16 0.28 0.66 1.04 1.18 1.30 1.16 1.51 1.57 1.18 0.99 0.89 0.80 0.87 0.96 0.86 0.77 0.72 0.79 0.98 1.25 1.27 1.39 1.55 1.82 2.09 2.40 2.62 2.68 2.75 2.95 3.08 3.03 3.24 2.97 2.81 2.47 2.36
0.11 0.13 0.12 0.11 0.11 0.14 0.18 0.20 0.32 0.48 0.69 1.05 1.35 1.57 1.48 1.22 1.12 0.92 0.76 0.73 0.73 0.67 0.68 0.71 0.77 0.99 1.08 1.07 1.18 1.34 1.56 1.77 2.04 2.28 2.48 2.54 2.52 2.55 2.70 2.87 2.81 2.64 2.56 2.29
0.08 0.08 0.10 0.11 0.12 0.15 0.16 0.19 0.26 0.39 0.65 0.94 1.25 1.70 1.75 1.51 1.30 1.09 1.01 0.82 0.71 0.71 0.72 0.72 0.73 0.79 0.84 0.91 1.06 1.30 1.51 1.54 1.79 2.17 2.42 2.37 2.45 2.38 2.53 2.51 2.49 2.52 2.44 2.39
0.06 0.08 0.10 0.13 0.16 0.19 0.21 0.19 0.21 0.30 0.37 0.60 1.15 1.39 1.23 1.22 1.15 1.09 1.00 0.93 0.87 0.81 0.77 0.73 0.74 0.74 0.86 0.83 0.93 1.13 1.31 1.45 1.73 2.11 2.44 2.51 2.46 2.46 2.51 2.33 2.28 2.41 2.43 2.42
0.07 0.08 0.10 0.16 0.21 0.21 0.21 0.21 0.22 0.31 0.33 0.39 0.63 0.96 0.73 0.83 0.96 1.00 0.89 0.82 0.78 0.68 0.65 0.60 0.59 0.67 0.68 0.70 0.83 1.18 1.48 1.86 2.07 2.42 2.82 2.92 2.71 2.50 2.33 2.12 2.11 2.29 2.46 2.50
0.06 0.08 0.18 0.37 0.38 0.28 0.22 0.19 0.21 0.24 0.25 0.33 0.63 0.87 0.67 0.74 0.88 0.90 0.89 0.79 0.75 0.75 0.62 0.60 0.58 0.69 0.71 0.70 0.73 0.85 1.07 1.52 1.93 2.34 2.73 2.69 2.41 2.18 2.13 2.09 2.11 2.28 2.49 2.49
0.07 0.07 0.14 0.32 0.38 0.36 0.30 0.24 0.22 0.20 0.23 0.31 0.43 0.72 0.70 0.74 0.73 0.82 0.79 0.74 0.81 0.87 0.73 0.67 0.65 0.66 0.67 0.69 0.68 0.79 0.91 1.01 1.31 1.87 2.27 2.21 2.01 1.93 1.95 1.99 2.07 2.13 2.25 2.30
0.08 0.07 0.08 0.12 0.20 0.26 0.27 0.25 0.23 0.19 0.18 0.31 0.38 0.52 0.59 0.75 0.74 0.78 0.76 0.71 0.67 0.77 0.73 0.68 0.68 0.78 0.80 0.87 0.88 0.88 0.91 0.93 1.15 1.71 2.04 2.03 1.90 1.90 1.88 1.87 2.02 2.13 2.22 2.23
0.10 0.11 0.12 0.14 0.18 0.20 0.19 0.22 0.21 0.16 0.14 0.16 0.23 0.42 0.47 0.74 0.88 0.87 0.87 0.83 0.78 0.76 0.71 0.69 0.63 0.73 0.86 0.94 0.98 0.99 1.05 1.10 1.25 1.63 1.96 1.97 1.86 1.81 1.74 1.83 2.00 2.15 2.23 2.42
0.17 0.15 0.16 0.19 0.22 0.22 0.29 0.24 0.21 0.20 0.20 0.23 0.34 0.47 0.48 0.57 0.74 0.85 0.88 0.84 0.76 0.78 0.71 0.71 0.76 0.85 1.05 1.00 1.05 1.13 1.07 1.13 1.32 1.70 1.98 2.07 1.99 1.93 1.90 1.84 2.02 2.24 2.48 2.70
0.29 0.28 0.26 0.24 0.29 0.42 0.33 0.25 0.25 0.29 0.35 0.37 0.39 0.43 0.47 0.60 0.71 0.85 1.01 0.87 0.72 0.75 0.78 0.88 0.87 0.96 1.04 1.04 1.11 1.18 1.20 1.25 1.43 1.75 2.02 2.17 2.13 2.12 2.21 2.22 2.30 2.50 2.75 2.93
0.35 0.40 0.37 0.34 0.39 0.48 0.44 0.35 0.38 0.42 0.50 0.54 0.56 0.48 0.56 0.64 0.76 0.94 0.92 0.88 0.90 0.92 0.93 0.99 1.10 1.16 1.25 1.26 1.21 1.29 1.45 1.51 1.58 1.68 1.98 2.20 2.28 2.35 2.35 2.38 2.63 2.83 2.96 2.97
0.37 0.46 0.51 0.47 0.58 0.67 0.66 0.49 0.42 0.50 0.85 0.68 0.69 0.67 0.62 0.67 0.98 1.15 0.96 0.88 0.88 1.00 1.11 1.12 1.19 1.28 1.32 1.36 1.43 1.51 1.65 1.80 1.93 2.03 2.18 2.47 2.68 2.84 2.86 2.92 2.98 3.02 3.12 3.07
0.68 0.64 0.63 0.69 0.83 0.79 0.62 0.54 0.49 0.95 1.29 0.93 0.90 0.87 0.79 0.92 1.04 1.07 0.96 0.94 0.92 0.96 1.10 1.19 1.23 1.34 1.43 1.45 1.59 1.90 2.07 2.15 2.31 2.47 2.54 2.81 3.17 3.35 3.29 3.32 3.20 3.10 3.07 3.08
0.91 0.88 0.88 0.93 1.20 1.30 0.72 0.65 1.03 1.29 1.08 1.11 1.13 1.09 1.03 1.02 1.07 1.08 1.08 0.98 0.97 1.02 1.09 1.22 1.28 1.36 1.56 1.82 2.02 2.31 2.51 2.57 2.64 2.78 3.07 3.31 3.49 3.31 3.20 3.38 3.27 3.27 3.33 3.28
1.00 1.05 1.14 1.22 1.45 1.25 0.90 1.05 1.22 1.18 1.15 1.21 1.18 1.11 1.02 0.99 1.14 1.09 1.04 1.06 0.98 0.98 1.04 1.16 1.29 1.49 1.71 2.01 2.41 2.64 2.72 2.92 2.93 2.98 3.19 3.25 3.29 3.39 3.53 3.60 3.48 3.42 3.40 3.32
1.24 1.12 1.31 1.53 1.58 1.34 1.19 1.18 1.14 1.16 1.18 1.15 1.09 1.09 1.08 1.06 1.06 1.06 1.04 1.06 1.04 1.04 1.10 1.16 1.31 1.57 1.91 2.21 2.55 2.71 2.76 2.78 2.79 2.81 2.85 2.97 3.14 3.25 3.37 3.62 3.63 3.49 3.31 3.20
1.49 1.41 1.68 2.09 2.15 1.98 1.80 1.55 1.37 1.32 1.25 1.29 1.27 1.23 1.19 1.14 1.09 1.06 1.10 1.12 1.12 1.14 1.22 1.32 1.45 1.58 1.79 2.10 2.40 2.52 2.64 2.73 2.89 2.91 2.83 2.75 2.77 2.88 3.03 3.16 3.26 3.22 3.20 3.09
1.67 1.73 2.04 2.45 2.18 2.14 2.25 1.94 1.69 1.64 1.63 1.63 1.60 1.55 1.44 1.35 1.28 1.22 1.23 1.19 1.18 1.13 1.19 1.32 1.46 1.65 1.85 2.07 2.29 2.38 2.55 2.68 2.84 2.85 2.73 2.66 2.61 2.68 2.74 2.76 2.75 2.63 2.54 2.43

GEFSCGP_prec_meanprecacc_366.txt.gz
Total_Precipitation_Accumulation
0.11 0.15 0.18 0.16 0.20 0.24 0.29 0.35 0.47 0.49 0.34 0.40 0.62 0.82 1.01 1.21 1.35 1.41 1.50 1.46 1.64 1.94 2.11 2.49 2.90 3.38 3.92 4.46 5.18 5.87 6.51 6.65 6.52 6.20 5.90 5.66 5.21 4.91 4.59 4.34 4.21 3.97 3.68 3.55
0.13 0.16 0.12 0.12 0.14 0.17 0.26 0.35 0.49 0.48 0.36 0.42 0.67 0.92 1.17 1.25 1.19 1.17 1.34 1.43 1.51 1.73 2.04 2.42 3.00 3.30 3.65 4.20 4.81 5.22 5.37 5.23 5.15 5.25 5.21 4.94 4.93 4.76 4.69 4.54 4.44 3.98 3.75 3.62
0.13 0.12 0.09 0.10 0.14 0.16 0.20 0.30 0.40 0.44 0.44 0.54 0.79 1.20 1.44 1.43 1.16 1.05 1.07 1.20 1.34 1.48 1.69 2.05 2.63 2.97 3.16 3.70 4.07 4.09 4.11 4.14 4.29 4.39 4.34 4.39 4.61 4.69 4.80 4.79 4.60 4.24 4.00 3.79
0.07 0.08 0.09 0.11 0.14 0.14 0.21 0.20 0.26 0.33 0.49 0.85 0.97 1.54 1.78 1.86 1.58 1.23 1.11 1.26 1.34 1.40 1.42 1.74 2.10 2.34 2.65 2.96 3.14 3.14 3.29 3.49 3.62 3.71 3.69 3.60 3.65 3.92 4.21 4.50 4.66 4.60 4.31 4.00
0.08 0.08 0.09 0.10 0.11 0.13 0.15 0.15 0.22 0.34 0.48 0.71 0.84 1.21 1.75 2.04 1.99 1.58 1.28 1.22 1.17 1.30 1.48 1.66 1.78 1.99 2.11 2.22 2.40 2.48 2.76 3.26 3.49 3.55 3.66 3.62 3.37 3.39 3.51 3.67 3.91 3.92 3.95 3.75
0.08 0.09 0.09 0.08 0.09 0.12 0.14 0.21 0.33 0.49 0.73 1.10 0.94 1.07 1.64 1.84 1.86 1.48 1.25 1.18 1.08 1.08 1.19 1.40 1.67 1.79 1.80 1.84 2.00 2.23 2.56 3.15 3.46 3.54 3.44 3.47 3.50 3.58 3.49 3.46 3.57 3.49 3.46 3.36
0.20 0.17 0.13 0.09 0.11 0.13 0.17 0.35 0.82 1.30 1.62 1.66 1.01 0.97 1.27 1.35 1.22 1.19 1.06 1.10 1.16 1.06 0.99 0.99 1.17 1.43 1.47 1.47 1.63 1.90 2.17 2.65 2.98 3.14 3.00 2.98 3.21 3.43 3.31 3.13 3.08 3.06 2.91 2.83
0.23 0.26 0.17 0.12 0.11 0.13 0.17 0.29 0.68 1.05 1.19 1.30 1.16 1.51 1.57 1.18 0.99 0.89 0.80 0.87 0.97 0.86 0.77 0.73 0.80 0.99 1.25 1.28 1.40 1.56 1.83 2.09 2.41 2.63 2.70 2.76 2.98 3.12 3.07 3.28 3.01 2.85 2.50 2.39
0.12 0.14 0.12 0.11 0.12 0.15 0.19 0.21 0.32 0.49 0.69 1.05 1.35 1.57 1.48 1.22 1.12 0.93 0.77 0.74 0.73 0.67 0.68 0.72 0.78 1.00 1.09 1.08 1.18 1.35 1.56 1.77 2.04 2.29 2.49 2.55 2.54 2.57 2.73 2.91 2.85 2.68 2.59 2.32
0.08 0.08 0.10 0.11 0.13 0.15 0.17 0.19 0.27 0.39 0.66 0.94 1.25 1.70 1.75 1.51 1.30 1.09 1.01 0.82 0.71 0.72 0.72 0.73 0.74 0.80 0.86 0.92 1.07 1.30 1.51 1.54 1.79 2.19 2.44 2.39 2.47 2.40 2.55 2.53 2.51 2.54 2.47 2.43
0.06 0.08 0.10 0.14 0.16 0.19 0.21 0.20 0.22 0.30 0.37 0.61 1.16 1.39 1.23 1.22 1.15 1.09 1.00 0.94 0.87 0.82 0.78 0.75 0.76 0.76 0.87 0.83 0.93 1.14 1.31 1.45 1.74 2.12 2.45 2.52 2.47 2.47 2.52 2.34 2.29 2.42 2.45 2.45
0.07 0.08 0.10 0.16 0.22 0.21 0.21 0.21 0.23 0.32 0.33 0.39 0.63 0.96 0.73 0.83 0.96 1.00 0.89 0.82 0.78 0.69 0.66 0.61 0.60 0.68 0.69 0.71 0.84 1.18 1.48 1.86 2.08 2.43 2.82 2.93 2.72 2.51 2.34 2.13 2.12 2.30 2.48 2.52
0.06 0.09 0.19 0.37 0.39 0.28 0.22 0.19 0.21 0.24 0.25 0.34 0.64 0.88 0.67 0.74 0.88 0.90 0.90 0.79 0.75 0.76 0.63 0.61 0.59 0.70 0.72 0.71 0.74 0.86 1.07 1.53 1.94 2.35 2.74 2.70 2.42 2.19 2.14 2.10 2.12 2.29 2.51 2.51
0.07 0.07 0.14 0.32 0.38 0.37 0.30 0.24 0.22 0.20 0.23 0.31 0.43 0.72 0.70 0.74 0.73 0.82 0.79 0.74 0.81 0.88 0.74 0.68 0.66 0.67 0.68 0.70 0.69 0.80 0.92 1.02 1.32 1.88 2.29 2.23 2.03 1.94 1.96 2.01 2.08 2.15 2.28 2.33
0.08 0.08 0.08 0.12 0.20 0.26 0.28 0.25 0.23 0.19 0.18 0.32 0.38 0.52 0.59 0.75 0.75 0.78 0.77 0.71 0.68 0.77 0.73 0.68 0.69 0.78 0.81 0.88 0.88 0.89 0.92 0.95 1.16 1.73 2.06 2.04 1.92 1.92 1.89 1.88 2.03 2.16 2.25 2.27
0.10 0.11 0.12 0.15 0.18 0.20 0.19 0.22 0.21 0.16 0.15 0.16 0.24 0.42 0.47 0.74 0.89 0.88 0.88 0.83 0.78 0.76 0.72 0.70 0.63 0.74 0.87 0.95 0.99 1.00 1.07 1.13 1.27 1.64 1.97 1.98 1.88 1.82 1.75 1.84 2.01 2.17 2.26 2.46
0.17 0.15 0.16 0.19 0.23 0.22 0.29 0.24 0.21 0.21 0.21 0.24 0.35 0.48 0.48 0.58 0.75 0.86 0.88 0.84 0.76 0.78 0.72 0.72 0.77 0.86 1.06 1.01 1.06 1.14 1.09 1.16 1.35 1.72 2.00 2.09 2.01 1.95 1.92 1.86 2.04 2.26 2.51 2.73
0.29 0.28 0.26 0.24 0.29 0.42 0.33 0.25 0.25 0.29 0.35 0.37 0.39 0.43 0.47 0.61 0.72 0.85 1.01 0.87 0.72 0.75 0.79 0.88 0.88 0.96 1.05 1.04 1.11 1.19 1.21 1.27 1.45 1.76 2.03 2.18 2.14 2.13 2.23 2.24 2.33 2.54 2.79 2.96
0.35 0.40 0.37 0.34 0.39 0.48 0.44 0.35 0.39 0.42 0.50 0.54 0.56 0.49 0.57 0.65 0.77 0.94 0.92 0.88 0.91 0.92 0.93 1.00 1.11 1.17 1.26 1.26 1.22 1.29 1.45 1.51 1.59 1.69 1.98 2.22 2.31 2.39 2.38 2.42 2.68 2.87 3.00 3.02
0.37 0.46 0.51 0.47 0.58 0.67 0.66 0.49 0.42 0.50 0.85 0.68 0.69 0.67 0.62 0.68 0.99 1.15 0.96 0.88 0.88 1.01 1.12 1.13 1.20 1.29 1.33 1.37 1.44 1.52 1.65 1.81 1.94 2.03 2.19 2.49 2.72 2.89 2.92 2.98 3.05 3.08 3.16 3.11
0.68 0.64 0.63 0.69 0.83 0.79 0.62 0.54 0.49 0.95 1.30 0.94 0.90 0.88 0.79 0.92 1.05 1.07 0.97 0.95 0.94 0.97 1.12 1.21 1.24 1.35 1.44 1.46 1.60 1.90 2.08 2.16 2.32 2.47 2.55 2.82 3.20 3.39 3.34 3.39 3.26 3.15 3.12 3.12
0.91 0.88 0.88 0.93 1.21 1.31 0.72 0.66 1.03 1.30 1.09 1.12 1.13 1.10 1.04 1.02 1.07 1.09 1.09 0.99 0.99 1.04 1.10 1.23 1.30 1.38 1.58 1.83 2.03 2.32 2.52 2.58 2.65 2.79 3.09 3.32 3.50 3.32 3.22 3.43 3.32 3.30 3.36 3.30
1.00 1.05 1.14 1.22 1.46 1.25 0.90 1.05 1.23 1.18 1.15 1.21 1.18 1.12 1.03 1.00 1.15 1.11 1.06 1.07 1.00 0.99 1.05 1.17 1.30 1.51 1.74 2.02 2.42 2.66 2.73 2.93 2.94 2.99 3.20 3.27 3.30 3.40 3.54 3.62 3.50 3.44 3.42 3.33
1.24 1.12 1.31 1.53 1.58 1.35 1.19 1.19 1.15 1.17 1.18 1.15 1.09 1.10 1.08 1.07 1.07 1.07 1.05 1.08 1.05 1.05 1.11 1.17 1.33 1.60 1.97 2.24 2.56 2.73 2.78 2.79 2.79 2.82 2.87 2.99 3.16 3.27 3.40 3.65 3.65 3.52 3.33 3.22
1.49 1.41 1.68 2.09 2.15 1.99 1.81 1.56 1.39 1.33 1.25 1.30 1.28 1.24 1.20 1.14 1.09 1.06 1.11 1.13 1.13 1.14 1.23 1.33 1.46 1.61 1.86 2.17 2.43 2.54 2.65 2.74 2.90 2.92 2.85 2.77 2.80 2.92 3.07 3.20 3.29 3.25 3.23 3.11
1.68 1.73 2.04 2.45 2.19 2.15 2.26 1.95 1.70 1.65 1.65 1.64 1.61 1.55 1.45 1.35 1.28 1.22 1.24 1.21 1.19 1.14 1.20 1.32 1.48 1.67 1.90 2.14 2.34 2.42 2.57 2.71 2.86 2.86 2.74 2.68 2.64 2.71 2.77 2.79 2.77 2.66 2.55 2.44

GEFSCGP_prec_meanprecacc_372.txt.gz
Total_Precipitation_Accumulation
0.12 0.18 0.21 0.17 0.20 0.25 0.30 0.36 0.49 0.51 0.35 0.40 0.62 0.82 1.01 1.21 1.35 1.41 1.50 1.46 1.65 1.95 2.13 2.51 2.92 3.40 3.93 4.48 5.20 5.90 6.55 6.70 6.57 6.25 5.95 5.72 5.28 4.97 4.64 4.39 4.27 4.07 3.76 3.62
0.16 0.20 0.13 0.12 0.14 0.17 0.26 0.36 0.50 0.49 0.36 0.42 0.67 0.92 1.17 1.25 1.19 1.17 1.34 1.43 1.51 1.74 2.06 2.44 3.02 3.33 3.67 4.21 4.83 5.26 5.41 5.27 5.19 5.30 5.26 5.00 5.00 4.82 4.76 4.61 4.50 4.04 3.82 3.69
0.14 0.13 0.09 0.10 0.14 0.16 0.20 0.31 0.40 0.44 0.45 0.55 0.81 1.23 1.46 1.44 1.16 1.05 1.07 1.20 1.34 1.48 1.70 2.07 2.64 3.00 3.20 3.73 4.09 4.11 4.14 4.17 4.33 4.44 4.40 4.45 4.68 4.77 4.88 4.85 4.64 4.27 4.02 3.82
0.08 0.08 0.09 0.11 0.14 0.14 0.22 0.20 0.26 0.33 0.51 0.88 1.00 1.61 1.86 1.90 1.59 1.24 1.12 1.26 1.34 1.40 1.43 1.76 2.12 2.36 2.67 3.00 3.17 3.17 3.32 3.52 3.66 3.76 3.75 3.66 3.70 3.96 4.25 4.55 4.71 4.64 4.33 4.01
0.08 0.08 0.09 0.11 0.12 0.13 0.15 0.15 0.22 0.35 0.50 0.73 0.86 1.26 1.81 2.08 2.01 1.58 1.29 1.22 1.17 1.30 1.48 1.66 1.79 2.00 2.12 2.23 2.42 2.50 2.78 3.28 3.51 3.58 3.69 3.65 3.41 3.43 3.55 3.72 3.95 3.96 3.98 3.78
0.09 0.09 0.09 0.08 0.09 0.12 0.14 0.21 0.34 0.50 0.77 1.15 0.96 1.12 1.71 1.87 1.89 1.49 1.26 1.18 1.09 1.08 1.19 1.40 1.68 1.81 1.81 1.84 2.01 2.24 2.58 3.17 3.49 3.56 3.46 3.49 3.53 3.62 3.53 3.50 3.61 3.52 3.49 3.40
0.21 0.18 0.14 0.09 0.11 0.14 0.17 0.36 0.85 1.35 1.73 1.71 1.02 0.99 1.30 1.37 1.24 1.20 1.07 1.11 1.17 1.07 0.99 0.99 1.17 1.43 1.47 1.47 1.64 1.91 2.19 2.67 2.99 3.15 3.01 2.99 3.23 3.47 3.35 3.17 3.12 3.10 2.95 2.87
0.23 0.27 0.18 0.13 0.12 0.13 0.17 0.29 0.73 1.12 1.24 1.33 1.17 1.54 1.59 1.19 0.99 0.90 0.81 0.89 0.98 0.88 0.78 0.74 0.81 0.99 1.26 1.29 1.41 1.56 1.83 2.10 2.42 2.65 2.71 2.77 2.99 3.15 3.10 3.32 3.04 2.88 2.53 2.42
0.12 0.14 0.12 0.11 0.12 0.15 0.19 0.21 0.33 0.51 0.72 1.09 1.36 1.59 1.51 1.24 1.13 0.93 0.77 0.76 0.75 0.68 0.69 0.73 0.80 1.01 1.10 1.09 1.19 1.35 1.57 1.77 2.05 2.30 2.50 2.56 2.56 2.60 2.76 2.94 2.87 2.70 2.63 2.35
0.08 0.09 0.10 0.12 0.14 0.15 0.17 0.20 0.28 0.40 0.68 0.97 1.28 1.74 1.80 1.53 1.30 1.10 1.02 0.83 0.73 0.72 0.73 0.74 0.76 0.82 0.87 0.93 1.07 1.30 1.51 1.55 1.81 2.22 2.47 2.40 2.48 2.41 2.58 2.55 2.53 2.57 2.50 2.48
0.07 0.09 0.11 0.14 0.17 0.21 0.22 0.20 0.23 0.31 0.41 0.64 1.21 1.43 1.25 1.24 1.17 1.13 1.03 0.94 0.87 0.82 0.79 0.76 0.77 0.78 0.89 0.84 0.93 1.14 1.31 1.47 1.79 2.19 2.52 2.56 2.49 2.49 2.55 2.37 2.31 2.45 2.49 2.50
0.07 0.08 0.12 0.17 0.22 0.21 0.22 0.22 0.24 0.33 0.35 0.42 0.68 1.02 0.74 0.83 0.96 1.02 0.92 0.84 0.78 0.69 0.67 0.62 0.61 0.69 0.70 0.73 0.85 1.19 1.50 1.89 2.11 2.46 2.85 2.95 2.73 2.51 2.35 2.15 2.14 2.32 2.51 2.55
0.06 0.09 0.20 0.38 0.40 0.28 0.22 0.20 0.22 0.25 0.26 0.36 0.68 0.93 0.69 0.74 0.89 0.91 0.91 0.80 0.76 0.76 0.64 0.62 0.61 0.72 0.74 0.74 0.80 0.91 1.09 1.53 1.94 2.35 2.74 2.70 2.43 2.20 2.15 2.12 2.14 2.31 2.52 2.53
0.07 0.07 0.14 0.34 0.40 0.38 0.31 0.25 0.23 0.21 0.25 0.33 0.45 0.76 0.72 0.75 0.73 0.82 0.79 0.75 0.82 0.88 0.75 0.69 0.67 0.69 0.71 0.73 0.74 0.87 0.97 1.03 1.33 1.88 2.29 2.24 2.04 1.95 1.98 2.02 2.09 2.16 2.30 2.35
0.08 0.08 0.08 0.13 0.21 0.28 0.28 0.25 0.23 0.20 0.19 0.33 0.41 0.55 0.61 0.77 0.76 0.79 0.78 0.72 0.68 0.78 0.74 0.68 0.69 0.79 0.82 0.89 0.90 0.92 0.96 0.96 1.17 1.73 2.07 2.05 1.93 1.94 1.91 1.91 2.05 2.18 2.27 2.29
0.10 0.11 0.12 0.16 0.21 0.21 0.20 0.23 0.22 0.17 0.16 0.17 0.26 0.45 0.49 0.76 0.90 0.88 0.89 0.84 0.78 0.76 0.72 0.70 0.63 0.75 0.88 0.97 1.00 1.01 1.08 1.14 1.28 1.66 1.99 2.01 1.91 1.84 1.77 1.86 2.03 2.19 2.29 2.49
0.17 0.15 0.16 0.20 0.24 0.24 0.29 0.24 0.21 0.21 0.21 0.25 0.37 0.50 0.50 0.59 0.76 0.87 0.89 0.84 0.77 0.79 0.73 0.73 0.78 0.87 1.07 1.02 1.06 1.14 1.10 1.17 1.37 1.74 2.02 2.12 2.04 1.98 1.95 1.89 2.07 2.29 2.53 2.75
0.29 0.28 0.26 0.24 0.30 0.43 0.34 0.26 0.26 0.29 0.35 0.37 0.40 0.44 0.48 0.63 0.75 0.89 1.04 0.88 0.73 0.77 0.80 0.89 0.89 0.98 1.06 1.06 1.12 1.20 1.23 1.29 1.47 1.78 2.06 2.22 2.18 2.17 2.26 2.27 2.35 2.57 2.81 2.98
0.35 0.40 0.37 0.34 0.40 0.49 0.45 0.36 0.39 0.42 0.50 0.55 0.56 0.49 0.57 0.66 0.80 0.99 0.95 0.89 0.91 0.93 0.94 1.01 1.12 1.20 1.28 1.28 1.23 1.30 1.47 1.54 1.61 1.71 2.02 2.26 2.35 2.42 2.42 2.45 2.70 2.91 3.04 3.06
0.37 0.46 0.51 0.48 0.59 0.69 0.67 0.50 0.43 0.50 0.86 0.68 0.69 0.68 0.62 0.68 1.00 1.18 1.00 0.92 0.91 1.02 1.13 1.15 1.23 1.31 1.35 1.38 1.45 1.53 1.67 1.84 1.97 2.05 2.22 2.52 2.76 2.92 2.95 3.01 3.08 3.11 3.20 3.16
0.68 0.64 0.63 0.69 0.84 0.81 0.63 0.55 0.50 0.97 1.32 0.94 0.91 0.89 0.80 0.92 1.05 1.08 0.99 0.99 0.96 0.99 1.13 1.22 1.25 1.36 1.45 1.47 1.62 1.94 2.12 2.20 2.36 2.51 2.58 2.86 3.23 3.42 3.37 3.42 3.29 3.18 3.16 3.16
0.91 0.88 0.88 0.94 1.22 1.33 0.73 0.66 1.05 1.32 1.09 1.12 1.13 1.10 1.04 1.03 1.08 1.11 1.11 1.01 1.00 1.05 1.12 1.25 1.31 1.40 1.60 1.86 2.07 2.36 2.56 2.61 2.70 2.84 3.13 3.36 3.54 3.36 3.26 3.47 3.36 3.35 3.40 3.35
1.00 1.05 1.14 1.23 1.47 1.26 0.91 1.06 1.23 1.19 1.16 1.21 1.19 1.13 1.03 1.00 1.16 1.12 1.07 1.09 1.01 1.00 1.06 1.18 1.31 1.53 1.76 2.05 2.46 2.70 2.77 2.97 2.98 3.03 3.24 3.30 3.34 3.44 3.59 3.66 3.53 3.48 3.46 3.37
1.25 1.12 1.31 1.53 1.59 1.35 1.20 1.20 1.15 1.17 1.19 1.16 1.10 1.10 1.09 1.08 1.08 1.07 1.05 1.09 1.07 1.07 1.13 1.19 1.34 1.62 1.99 2.28 2.60 2.77 2.83 2.85 2.85 2.87 2.91 3.02 3.19 3.31 3.45 3.69 3.69 3.55 3.37 3.25
1.49 1.41 1.69 2.10 2.17 2.00 1.82 1.57 1.39 1.34 1.25 1.30 1.28 1.25 1.21 1.15 1.11 1.07 1.13 1.15 1.15 1.17 1.25 1.34 1.48 1.62 1.88 2.20 2.47 2.58 2.70 2.79 2.96 2.98 2.89 2.81 2.84 2.95 3.11 3.24 3.33 3.28 3.25 3.13
1.68 1.73 2.05 2.48 2.21 2.17 2.28 1.97 1.73 1.67 1.65 1.65 1.62 1.57 1.46 1.36 1.29 1.25 1.26 1.22 1.20 1.15 1.22 1.34 1.49 1.68 1.91 2.19 2.40 2.46 2.62 2.76 2.92 2.91 2.79 2.72 2.67 2.74 2.80 2.83 2.81 2.70 2.60 2.47

GEFSCGP_prec_meanprecacc_378.txt.gz
Total_Precipitation_Accumulation
0.14 0.20 0.23 0.18 0.22 0.28 0.34 0.40 0.53 0.55 0.37 0.42 0.64 0.84 1.03 1.22 1.36 1.41 1.51 1.47 1.65 1.96 2.14 2.53 2.96 3.44 3.97 4.50 5.21 5.92 6.56 6.71 6.58 6.28 5.99 5.76 5.34 5.04 4.71 4.46 4.36 4.14 3.81 3.65
0.19 0.22 0.15 0.13 0.16 0.20 0.29 0.40 0.55 0.54 0.40 0.44 0.69 0.95 1.20 1.27 1.20 1.18 1.35 1.44 1.52 1.75 2.08 2.49 3.06 3.36 3.72 4.25 4.86 5.28 5.42 5.28 5.20 5.31 5.28 5.02 5.04 4.88 4.82 4.69 4.58 4.10 3.87 3.73
0.18 0.15 0.10 0.11 0.15 0.20 0.22 0.33 0.43 0.48 0.47 0.58 0.85 1.28 1.52 1.49 1.19 1.07 1.08 1.21 1.35 1.48 1.71 2.09 2.67 3.02 3.27 3.77 4.11 4.13 4.14 4.18 4.34 4.44 4.41 4.47 4.72 4.81 4.92 4.89 4.68 4.30 4.05 3.86
0.10 0.09 0.09 0.12 0.15 0.16 0.23 0.21 0.28 0.35 0.53 0.93 1.06 1.70 1.98 1.98 1.62 1.26 1.14 1.27 1.35 1.41 1.44 1.77 2.13 2.38 2.73 3.06 3.20 3.19 3.33 3.53 3.67 3.77 3.75 3.67 3.72 3.98 4.28 4.56 4.73 4.67 4.36 4.06
0.10 0.09 0.10 0.12 0.13 0.14 0.17 0.16 0.23 0.36 0.52 0.79 0.94 1.35 1.91 2.14 2.07 1.63 1.31 1.24 1.18 1.31 1.49 1.68 1.81 2.02 2.15 2.26 2.43 2.51 2.80 3.30 3.53 3.59 3.70 3.66 3.42 3.45 3.57 3.74 3.97 3.98 4.01 3.83
0.09 0.10 0.10 0.10 0.11 0.14 0.16 0.22 0.36 0.53 0.79 1.19 1.01 1.17 1.77 1.91 1.92 1.52 1.28 1.19 1.10 1.10 1.21 1.42 1.70 1.82 1.82 1.86 2.02 2.25 2.59 3.19 3.50 3.56 3.46 3.50 3.55 3.64 3.55 3.51 3.62 3.53 3.52 3.44
0.22 0.20 0.15 0.11 0.13 0.16 0.19 0.39 0.90 1.40 1.76 1.74 1.07 1.07 1.37 1.39 1.26 1.22 1.09 1.12 1.19 1.09 1.01 1.02 1.21 1.45 1.48 1.48 1.66 1.93 2.21 2.68 3.01 3.16 3.02 3.01 3.25 3.49 3.37 3.18 3.13 3.11 2.96 2.89
0.24 0.29 0.19 0.14 0.13 0.15 0.19 0.32 0.79 1.20 1.28 1.38 1.23 1.59 1.63 1.21 1.02 0.93 0.83 0.91 1.00 0.89 0.80 0.75 0.82 1.00 1.27 1.31 1.43 1.59 1.86 2.12 2.45 2.68 2.73 2.80 3.01 3.17 3.12 3.33 3.06 2.89 2.54 2.43
0.13 0.15 0.13 0.12 0.13 0.16 0.19 0.22 0.36 0.55 0.75 1.14 1.44 1.63 1.53 1.26 1.16 0.96 0.80 0.78 0.76 0.70 0.71 0.75 0.82 1.04 1.12 1.12 1.22 1.38 1.60 1.82 2.12 2.36 2.53 2.59 2.58 2.62 2.78 2.96 2.89 2.72 2.65 2.37
0.09 0.10 0.12 0.13 0.15 0.16 0.17 0.21 0.31 0.44 0.74 1.05 1.36 1.79 1.85 1.56 1.33 1.12 1.03 0.86 0.78 0.76 0.75 0.76 0.78 0.86 0.93 0.98 1.11 1.35 1.62 1.68 1.91 2.27 2.51 2.45 2.53 2.45 2.60 2.58 2.56 2.59 2.53 2.49
0.07 0.09 0.12 0.15 0.18 0.22 0.23 0.22 0.25 0.34 0.45 0.70 1.31 1.54 1.30 1.26 1.20 1.15 1.05 0.97 0.92 0.87 0.82 0.78 0.79 0.82 0.96 0.91 0.99 1.19 1.38 1.55 1.85 2.24 2.57 2.63 2.54 2.52 2.58 2.39 2.34 2.48 2.51 2.51
0.07 0.09 0.13 0.17 0.23 0.22 0.23 0.23 0.26 0.36 0.39 0.47 0.79 1.12 0.78 0.87 0.99 1.04 0.94 0.86 0.81 0.73 0.71 0.66 0.66 0.73 0.73 0.76 0.89 1.25 1.56 1.96 2.21 2.59 2.95 3.00 2.77 2.55 2.39 2.17 2.17 2.35 2.53 2.56
0.07 0.10 0.21 0.40 0.42 0.30 0.24 0.21 0.23 0.26 0.28 0.41 0.75 0.98 0.72 0.77 0.94 0.93 0.93 0.82 0.78 0.80 0.69 0.67 0.66 0.77 0.77 0.76 0.83 0.96 1.16 1.60 2.01 2.43 2.82 2.75 2.47 2.24 2.19 2.15 2.17 2.34 2.54 2.55
0.08 0.08 0.14 0.34 0.41 0.39 0.32 0.26 0.24 0.22 0.26 0.37 0.49 0.78 0.75 0.77 0.76 0.84 0.84 0.80 0.84 0.94 0.86 0.76 0.71 0.72 0.73 0.76 0.78 0.92 1.07 1.14 1.42 1.96 2.35 2.29 2.09 1.99 2.01 2.06 2.13 2.19 2.32 2.38
0.08 0.08 0.09 0.13 0.22 0.28 0.29 0.27 0.25 0.21 0.20 0.35 0.42 0.58 0.64 0.80 0.79 0.83 0.82 0.77 0.75 0.86 0.81 0.75 0.76 0.84 0.85 0.93 0.95 0.97 1.03 1.03 1.24 1.80 2.12 2.10 1.98 1.96 1.93 1.93 2.08 2.20 2.30 2.33
0.11 0.11 0.13 0.17 0.22 0.22 0.20 0.23 0.23 0.19 0.18 0.19 0.28 0.49 0.53 0.81 0.94 0.92 0.93 0.88 0.86 0.90 0.82 0.74 0.67 0.78 0.91 1.00 1.04 1.05 1.13 1.21 1.33 1.71 2.03 2.05 1.95 1.87 1.78 1.87 2.06 2.22 2.32 2.53
0.17 0.16 0.17 0.21 0.25 0.24 0.30 0.25 0.22 0.22 0.24 0.27 0.39 0.54 0.54 0.64 0.80 0.90 0.94 0.92 0.89 0.89 0.79 0.77 0.81 0.90 1.12 1.08 1.11 1.18 1.14 1.20 1.40 1.77 2.06 2.16 2.08 2.01 1.98 1.91 2.10 2.32 2.57 2.80
0.30 0.29 0.27 0.25 0.31 0.43 0.35 0.27 0.27 0.31 0.38 0.40 0.44 0.48 0.52 0.69 0.80 0.94 1.08 0.93 0.78 0.80 0.83 0.93 0.92 1.01 1.12 1.11 1.17 1.25 1.28 1.32 1.51 1.82 2.10 2.25 2.21 2.20 2.29 2.30 2.38 2.60 2.85 3.03
0.35 0.41 0.38 0.35 0.41 0.50 0.46 0.37 0.41 0.44 0.53 0.57 0.60 0.53 0.61 0.71 0.85 1.02 0.97 0.91 0.93 0.95 0.96 1.04 1.17 1.27 1.34 1.33 1.28 1.36 1.54 1.60 1.67 1.76 2.06 2.29 2.38 2.44 2.44 2.47 2.73 2.94 3.07 3.09
0.38 0.47 0.51 0.49 0.60 0.71 0.69 0.52 0.45 0.53 0.89 0.71 0.74 0.74 0.68 0.73 1.04 1.21 1.02 0.95 0.95 1.04 1.16 1.19 1.28 1.36 1.39 1.41 1.48 1.56 1.71 1.87 2.00 2.08 2.24 2.56 2.79 2.96 2.98 3.04 3.11 3.14 3.24 3.19
0.69 0.64 0.63 0.70 0.85 0.83 0.65 0.57 0.51 0.99 1.35 0.97 0.94 0.92 0.83 0.96 1.08 1.10 1.02 1.03 1.00 1.01 1.15 1.27 1.32 1.43 1.50 1.50 1.65 1.97 2.16 2.25 2.41 2.56 2.63 2.91 3.28 3.46 3.40 3.45 3.32 3.22 3.20 3.20
0.92 0.89 0.89 0.95 1.24 1.35 0.75 0.68 1.07 1.37 1.14 1.15 1.16 1.15 1.08 1.06 1.11 1.13 1.13 1.03 1.02 1.07 1.15 1.28 1.34 1.43 1.64 1.90 2.12 2.43 2.64 2.70 2.79 2.92 3.20 3.40 3.58 3.39 3.29 3.49 3.38 3.38 3.44 3.38
1.02 1.08 1.17 1.25 1.50 1.29 0.94 1.09 1.27 1.23 1.20 1.25 1.23 1.18 1.07 1.04 1.19 1.14 1.09 1.11 1.04 1.04 1.08 1.20 1.33 1.56 1.80 2.10 2.52 2.77 2.86 3.06 3.07 3.12 3.31 3.35 3.37 3.48 3.62 3.68 3.56 3.51 3.50 3.41
1.27 1.16 1.35 1.59 1.64 1.38 1.23 1.24 1.19 1.20 1.22 1.19 1.13 1.13 1.11 1.10 1.10 1.09 1.07 1.11 1.10 1.10 1.16 1.23 1.39 1.66 2.03 2.32 2.64 2.83 2.91 2.93 2.92 2.93 2.96 3.07 3.23 3.35 3.49 3.73 3.71 3.58 3.41 3.28
1.52 1.46 1.74 2.15 2.22 2.05 1.88 1.64 1.46 1.39 1.29 1.33 1.31 1.27 1.23 1.18 1.13 1.09 1.15 1.17 1.18 1.20 1.31 1.42 1.57 1.71 1.96 2.25 2.51 2.63 2.74 2.84 3.00 3.02 2.93 2.85 2.88 2.99 3.16 3.28 3.36 3.31 3.29 3.17
1.71 1.80 2.11 2.51 2.24 2.19 2.31 2.00 1.77 1.72 1.69 1.69 1.67 1.60 1.49 1.39 1.32 1.27 1.28 1.25 1.23 1.18 1.25 1.39 1.54 1.72 1.94 2.22 2.44 2.50 2.67 2.82 2.98 2.98 2.84 2.76 2.72 2.79 2.86 2.89 2.85 2.73 2.64 2.52